User: anonymous   Login
Location: Lawrence Hall of Science
(37.8785°N, 122.2415°W)
Time: 01:12:28
(UTC-07:00)
Language:

Cosmos 1461 - Orbit

View from above orbital plane
View from above orbital plane
View from above satellite
View from above satellite

Ground track
Ground track

The orbit data is extracted from the following two-line orbital elements,

1 14064U 83044A   17081.81168622 +.00000457 +00000-0 +55591-4 0  9990
2 14064 065.0018 192.0310 0084745 077.0855 283.9709 14.93504487710453
Epoch (UTC): 22 March 2017 19:28:49
Eccentricity: 0.0084745
inclination: 65.0018°
perigee height: 528 km
apogee height: 646 km
right ascension of ascending node: 192.0310°
argument of perigee: 77.0855°
revolutions per day: 14.93504487
mean anomaly at epoch: 283.9709°
orbit number at epoch: 71045

The dashed part of the orbit path shows where the satellite is in the earth's shadow,  

DLR